Tracking 17265 objects as of 3-September-2015
HD Live streaming from Space Station

Track Soyuz TMA-18M
and Space Station

SL-8 DEB

Track SL-8 DEB now!
10-day predictions
SL-8 DEB is classified as:


NORAD ID: 18545
Int'l Code: 1986-100C
Perigee: 884.0 km
Apogee: 908.3 km
Inclination: 82.9 °
Period: 102.8 minutes
Semi major axis: 7267 km
RCS: 0.0131 m2 (small)
Launch date: December 17, 1986
Source: Commonwealth of Independent States (former USSR) (CIS)

Note: This is SATELLITE DEBRIS
Your satellite tracking list
Your tracking list is empty





NASA's NSSDC Master Catalog

Two Line Element Set (TLE):
1 18545U 86100C   15245.47555949 +.00000709 +00000-0 +45902-3 0  9992
2 18545 082.9291 328.4593 0016714 230.0177 261.2221 14.01388134452223

Source of the keplerian elements: AFSPC

N2YO: 477